TBV8244 SBGL-SBPA

Flight info

Callsign TBV8244
Flight time 1h 37m
Altitude 38000
Route BITAK UN857 DOKRO DCT VUKMO
Aircraft A35K/H-SDE2E3GHIJ3J4J5LM1ORWXY/LB1D1

Departure

Time 2026-05-03 20:23
Airport Rio Galeão – Tom Jobim International Airport (SBGL)

Arrival

Time 2026-05-03 22:00
Airport Porto Alegre-Salgado Filho International Airport (SBPA)
Time Latitude Longitude Altitude Speed Heading
2026-05-03 20:15 -22.81679 -43.24544 27 ft 4 kts 245°
2026-05-03 20:15 -22.81671 -43.24532 27 ft 1 kts 221°
2026-05-03 20:15 -22.81670 -43.24531 27 ft 0 kts 221°
2026-05-03 20:18 -22.81681 -43.24541 27 ft 8 kts 221°
2026-05-03 20:18 -22.81697 -43.24657 27 ft 21 kts 294°
2026-05-03 20:18 -22.81612 -43.24793 27 ft 23 kts 304°
2026-05-03 20:18 -22.81512 -43.24934 27 ft 24 kts 308°
2026-05-03 20:19 -22.81543 -43.25081 27 ft 24 kts 217°
2026-05-03 20:19 -22.81599 -43.25214 26 ft 19 kts 308°
2026-05-03 20:19 -22.81507 -43.25341 27 ft 26 kts 305°
2026-05-03 20:19 -22.81384 -43.25526 27 ft 32 kts 305°
2026-05-03 20:20 -22.81254 -43.25723 28 ft 33 kts 305°
2026-05-03 20:20 -22.81135 -43.25897 27 ft 23 kts 317°
2026-05-03 20:20 -22.80999 -43.25863 29 ft 22 kts 35°
2026-05-03 20:20 -22.80869 -43.25762 29 ft 24 kts 35°
2026-05-03 20:21 -22.80735 -43.25660 34 ft 23 kts 35°
2026-05-03 20:21 -22.80599 -43.25556 35 ft 25 kts 35°
2026-05-03 20:21 -22.80452 -43.25588 36 ft 24 kts 325°
2026-05-03 20:21 -22.80350 -43.25595 33 ft 13 kts 31°
2026-05-03 20:22 -22.80264 -43.25528 31 ft 17 kts 36°
2026-05-03 20:22 -22.80172 -43.25438 31 ft 17 kts 65°
2026-05-03 20:22 -22.80161 -43.25403 31 ft 1 kts 73°
2026-05-03 20:22 -22.80152 -43.25368 31 ft 17 kts 74°
2026-05-03 20:23 -22.80050 -43.24976 34 ft 92 kts 74°
2026-05-03 20:23 -22.79813 -43.24069 34 ft 157 kts 74°
2026-05-03 20:23 -22.79460 -43.22804 435 ft 180 kts 72°
2026-05-03 20:23 -22.79085 -43.21512 1273 ft 180 kts 72°
2026-05-03 20:24 -22.78756 -43.20209 1819 ft 184 kts 78°
2026-05-03 20:24 -22.78492 -43.18777 2072 ft 204 kts 79°
2026-05-03 20:24 -22.78199 -43.17192 2302 ft 226 kts 79°
2026-05-03 20:24 -22.77857 -43.15470 2685 ft 239 kts 78°
2026-05-03 20:25 -22.77488 -43.13675 3219 ft 248 kts 77°
2026-05-03 20:25 -22.77102 -43.11840 3811 ft 252 kts 77°
2026-05-03 20:25 -22.76703 -43.09982 4463 ft 253 kts 78°
2026-05-03 20:25 -22.76311 -43.08127 5184 ft 252 kts 79°
2026-05-03 20:26 -22.75924 -43.06271 5866 ft 253 kts 79°
2026-05-03 20:26 -22.75759 -43.04371 6451 ft 256 kts 97°
2026-05-03 20:26 -22.76332 -43.02574 7068 ft 253 kts 126°
2026-05-03 20:26 -22.77590 -43.01265 7658 ft 254 kts 149°
2026-05-03 20:27 -22.79119 -43.00272 8283 ft 258 kts 152°
2026-05-03 20:27 -22.80688 -42.99306 8907 ft 261 kts 152°
2026-05-03 20:27 -22.82272 -42.98317 9493 ft 265 kts 152°
2026-05-03 20:27 -22.83953 -42.97487 10081 ft 267 kts 166°
2026-05-03 20:28 -22.85791 -42.97405 10637 ft 268 kts 192°
2026-05-03 20:28 -22.87501 -42.98217 10962 ft 280 kts 216°
2026-05-03 20:28 -22.89081 -42.99549 11263 ft 295 kts 220°
2026-05-03 20:28 -22.90704 -43.00999 11578 ft 309 kts 219°
2026-05-03 20:29 -22.92412 -43.02505 11876 ft 324 kts 219°
2026-05-03 20:29 -22.94204 -43.04067 12183 ft 337 kts 219°
2026-05-03 20:29 -22.96070 -43.05685 12444 ft 349 kts 219°
2026-05-03 20:29 -22.97994 -43.07349 12707 ft 360 kts 219°
2026-05-03 20:30 -22.99981 -43.09066 12968 ft 370 kts 219°
2026-05-03 20:30 -23.02003 -43.10826 13296 ft 376 kts 219°
2026-05-03 20:30 -23.04050 -43.12620 13704 ft 379 kts 219°
2026-05-03 20:30 -23.06111 -43.14424 14138 ft 382 kts 219°
2026-05-03 20:31 -23.08188 -43.16242 14587 ft 384 kts 219°
2026-05-03 20:31 -23.10274 -43.18069 14986 ft 387 kts 219°
2026-05-03 20:31 -23.12379 -43.19912 15386 ft 389 kts 220°
2026-05-03 20:31 -23.14491 -43.21762 15805 ft 392 kts 220°
2026-05-03 20:32 -23.16621 -43.23629 16224 ft 394 kts 220°
2026-05-03 20:32 -23.18758 -43.25502 16652 ft 396 kts 220°
2026-05-03 20:32 -23.20880 -43.27364 17067 ft 398 kts 220°
2026-05-03 20:32 -23.23041 -43.29260 17477 ft 400 kts 220°
2026-05-03 20:33 -23.25216 -43.31170 17896 ft 403 kts 220°
2026-05-03 20:33 -23.27404 -43.33092 18312 ft 405 kts 220°
2026-05-03 20:33 -23.29608 -43.35028 18731 ft 407 kts 220°
2026-05-03 20:33 -23.31813 -43.36966 19141 ft 409 kts 220°
2026-05-03 20:34 -23.34027 -43.38913 19554 ft 411 kts 220°
2026-05-03 20:34 -23.36265 -43.40854 19959 ft 412 kts 220°
2026-05-03 20:34 -23.38532 -43.42784 20337 ft 415 kts 220°
2026-05-03 20:34 -23.40809 -43.44725 20738 ft 416 kts 220°
2026-05-03 20:35 -23.43090 -43.46675 21120 ft 418 kts 220°
2026-05-03 20:35 -23.45385 -43.48642 21485 ft 420 kts 220°
2026-05-03 20:35 -23.47683 -43.50613 21836 ft 422 kts 220°
2026-05-03 20:35 -23.49211 -43.51923 22082 ft 422 kts 220°
2026-05-03 20:36 -23.51521 -43.53905 22421 ft 424 kts 220°
2026-05-03 20:36 -23.53842 -43.55900 22743 ft 426 kts 220°
2026-05-03 20:36 -23.56172 -43.57902 23060 ft 427 kts 220°
2026-05-03 20:36 -23.58511 -43.59916 23376 ft 429 kts 220°
2026-05-03 20:37 -23.60854 -43.61931 23722 ft 430 kts 221°
2026-05-03 20:37 -23.63163 -43.64004 24012 ft 430 kts 224°
2026-05-03 20:37 -23.65371 -43.66223 24322 ft 431 kts 226°
2026-05-03 20:37 -23.67530 -43.68507 24617 ft 433 kts 227°
2026-05-03 20:38 -23.69644 -43.70797 24923 ft 435 kts 227°
2026-05-03 20:38 -23.71788 -43.73134 25232 ft 437 kts 227°
2026-05-03 20:38 -23.73973 -43.75511 25559 ft 439 kts 227°
2026-05-03 20:38 -23.76137 -43.77857 25897 ft 440 kts 227°
2026-05-03 20:39 -23.78294 -43.80183 26257 ft 442 kts 227°
2026-05-03 20:39 -23.80488 -43.82546 26599 ft 444 kts 227°
2026-05-03 20:39 -23.82697 -43.84921 26916 ft 446 kts 227°
2026-05-03 20:39 -23.84918 -43.87310 27258 ft 448 kts 227°
2026-05-03 20:40 -23.87143 -43.89706 27608 ft 450 kts 227°
2026-05-03 20:40 -23.89372 -43.92110 27947 ft 452 kts 227°
2026-05-03 20:40 -23.91625 -43.94541 28286 ft 455 kts 227°
2026-05-03 20:40 -23.93879 -43.96974 28614 ft 457 kts 227°
2026-05-03 20:41 -23.96142 -43.99418 28950 ft 459 kts 227°
2026-05-03 20:41 -23.98419 -44.01877 29261 ft 461 kts 227°
2026-05-03 20:41 -24.00704 -44.04344 29559 ft 463 kts 228°
2026-05-03 20:41 -24.03003 -44.06830 29879 ft 465 kts 228°
2026-05-03 20:42 -24.05309 -44.09324 30151 ft 467 kts 228°
2026-05-03 20:42 -24.07620 -44.11824 30423 ft 469 kts 228°
2026-05-03 20:42 -24.09939 -44.14335 30706 ft 470 kts 228°
2026-05-03 20:42 -24.12270 -44.16859 30955 ft 472 kts 228°
2026-05-03 20:43 -24.14610 -44.19395 31201 ft 474 kts 228°
2026-05-03 20:43 -24.16956 -44.21939 31428 ft 476 kts 228°
2026-05-03 20:43 -24.19313 -44.24497 31687 ft 477 kts 228°
2026-05-03 20:43 -24.21666 -44.27051 32061 ft 475 kts 228°
2026-05-03 20:44 -24.24007 -44.29593 32428 ft 474 kts 228°
2026-05-03 20:44 -24.26349 -44.32137 32789 ft 473 kts 228°
2026-05-03 20:44 -24.28647 -44.34636 33130 ft 471 kts 228°
2026-05-03 20:44 -24.30972 -44.37167 33444 ft 471 kts 228°
2026-05-03 20:45 -24.33296 -44.39696 33758 ft 470 kts 228°
2026-05-03 20:45 -24.35615 -44.42223 34117 ft 469 kts 228°
2026-05-03 20:45 -24.37920 -44.44736 34436 ft 467 kts 228°
2026-05-03 20:45 -24.40227 -44.47252 34742 ft 467 kts 229°
2026-05-03 20:46 -24.42525 -44.49760 35039 ft 466 kts 229°
2026-05-03 20:46 -24.44819 -44.52264 35334 ft 465 kts 229°
2026-05-03 20:46 -24.47110 -44.54766 35644 ft 464 kts 229°
2026-05-03 20:46 -24.49395 -44.57262 35913 ft 463 kts 229°
2026-05-03 20:47 -24.51668 -44.59765 36180 ft 462 kts 229°
2026-05-03 20:47 -24.53925 -44.62279 36437 ft 462 kts 229°
2026-05-03 20:47 -24.56174 -44.64800 36682 ft 461 kts 229°
2026-05-03 20:47 -24.58411 -44.67310 36994 ft 458 kts 229°
2026-05-03 20:48 -24.60633 -44.69804 37372 ft 454 kts 229°
2026-05-03 20:48 -24.62840 -44.72277 37675 ft 451 kts 229°
2026-05-03 20:48 -24.65034 -44.74732 37898 ft 451 kts 229°
2026-05-03 20:48 -24.67229 -44.77193 38090 ft 450 kts 229°
2026-05-03 20:49 -24.69424 -44.79654 38190 ft 451 kts 229°
2026-05-03 20:49 -24.73795 -44.84560 38203 ft 452 kts 230°
2026-05-03 20:50 -24.78198 -44.89503 38202 ft 452 kts 230°
2026-05-03 20:50 -24.82597 -44.94443 38202 ft 452 kts 230°
2026-05-03 20:51 -24.86990 -44.99386 38203 ft 452 kts 230°
2026-05-03 20:51 -24.91384 -45.04334 38210 ft 451 kts 230°
2026-05-03 20:52 -24.95775 -45.09286 38209 ft 452 kts 230°
2026-05-03 20:52 -25.00133 -45.14206 38216 ft 452 kts 230°
2026-05-03 20:53 -25.04531 -45.19176 38207 ft 452 kts 230°
2026-05-03 20:53 -25.08916 -45.24135 38210 ft 451 kts 230°
2026-05-03 20:54 -25.13301 -45.29096 38210 ft 452 kts 230°
2026-05-03 20:54 -25.19877 -45.36521 38206 ft 451 kts 230°
2026-05-03 20:55 -25.24233 -45.41491 38212 ft 450 kts 230°
2026-05-03 20:55 -25.28598 -45.46468 38214 ft 451 kts 230°
2026-05-03 20:56 -25.32975 -45.51433 38205 ft 449 kts 230°
2026-05-03 20:56 -25.37317 -45.56406 38208 ft 448 kts 230°
2026-05-03 20:57 -25.41665 -45.61381 38218 ft 451 kts 230°
2026-05-03 20:57 -25.45996 -45.66328 38227 ft 452 kts 230°
2026-05-03 20:58 -25.50391 -45.71344 38223 ft 451 kts 230°
2026-05-03 20:58 -25.54736 -45.76296 38218 ft 449 kts 230°
2026-05-03 20:59 -25.59077 -45.81295 38225 ft 448 kts 230°
2026-05-03 20:59 -25.63420 -45.86286 38217 ft 450 kts 230°
2026-05-03 21:00 -25.67055 -45.90447 38217 ft 452 kts 230°
2026-05-03 21:00 -25.72155 -45.96290 38221 ft 451 kts 230°
2026-05-03 21:01 -25.76506 -46.01292 38226 ft 450 kts 230°
2026-05-03 21:01 -25.80826 -46.06271 38235 ft 450 kts 230°
2026-05-03 21:02 -25.85170 -46.11283 38226 ft 451 kts 230°
2026-05-03 21:02 -25.89512 -46.16299 38224 ft 450 kts 230°
2026-05-03 21:03 -25.93853 -46.21317 38230 ft 450 kts 230°
2026-05-03 21:03 -25.98196 -46.26346 38232 ft 450 kts 230°
2026-05-03 21:04 -26.02533 -46.31375 38244 ft 451 kts 230°
2026-05-03 21:04 -26.06873 -46.36410 38247 ft 451 kts 230°
2026-05-03 21:05 -26.11211 -46.41449 38248 ft 451 kts 230°
2026-05-03 21:05 -26.15548 -46.46492 38247 ft 451 kts 230°
2026-05-03 21:06 -26.19880 -46.51539 38248 ft 450 kts 230°
2026-05-03 21:06 -26.24179 -46.56549 38248 ft 450 kts 230°
2026-05-03 21:07 -26.28506 -46.61599 38223 ft 451 kts 230°
2026-05-03 21:07 -26.32834 -46.66655 38223 ft 451 kts 230°
2026-05-03 21:08 -26.37160 -46.71713 38237 ft 451 kts 230°
2026-05-03 21:08 -26.41165 -46.77053 38222 ft 448 kts 236°
2026-05-03 21:09 -26.44918 -46.82599 38237 ft 448 kts 236°
2026-05-03 21:09 -26.48658 -46.88162 38225 ft 448 kts 236°
2026-05-03 21:10 -26.52394 -46.93733 38223 ft 448 kts 236°
2026-05-03 21:10 -26.56125 -46.99306 38243 ft 448 kts 236°
2026-05-03 21:11 -26.59854 -47.04884 38245 ft 448 kts 236°
2026-05-03 21:11 -26.63560 -47.10436 38243 ft 448 kts 236°
2026-05-03 21:12 -26.67287 -47.16023 38227 ft 448 kts 236°
2026-05-03 21:12 -26.71012 -47.21615 38226 ft 448 kts 236°
2026-05-03 21:13 -26.74737 -47.27216 38226 ft 449 kts 236°
2026-05-03 21:13 -26.78464 -47.32826 38228 ft 448 kts 236°
2026-05-03 21:14 -26.82181 -47.38430 38233 ft 448 kts 236°
2026-05-03 21:14 -26.85898 -47.44037 38225 ft 448 kts 236°
2026-05-03 21:15 -26.89611 -47.49641 38233 ft 448 kts 236°
2026-05-03 21:15 -26.93323 -47.55261 38211 ft 448 kts 236°
2026-05-03 21:16 -26.97034 -47.60882 38214 ft 449 kts 236°
2026-05-03 21:16 -27.00746 -47.66510 38215 ft 449 kts 236°
2026-05-03 21:17 -27.03832 -47.71198 38213 ft 449 kts 236°
2026-05-03 21:17 -27.08167 -47.77787 38215 ft 449 kts 236°
2026-05-03 21:18 -27.11871 -47.83430 38213 ft 449 kts 236°
2026-05-03 21:18 -27.15579 -47.89082 38209 ft 450 kts 236°
2026-05-03 21:19 -27.19287 -47.94740 38214 ft 450 kts 236°
2026-05-03 21:19 -27.22995 -48.00406 38207 ft 450 kts 236°
2026-05-03 21:20 -27.26681 -48.06047 38215 ft 450 kts 236°
2026-05-03 21:20 -27.30388 -48.11726 38215 ft 450 kts 236°
2026-05-03 21:21 -27.34092 -48.17407 38207 ft 450 kts 236°
2026-05-03 21:21 -27.37794 -48.23094 38209 ft 450 kts 236°
2026-05-03 21:22 -27.41491 -48.28780 38208 ft 451 kts 236°
2026-05-03 21:22 -27.45192 -48.34480 38209 ft 451 kts 236°
2026-05-03 21:23 -27.48890 -48.40182 38208 ft 451 kts 236°
2026-05-03 21:23 -27.52584 -48.45885 38213 ft 451 kts 236°
2026-05-03 21:24 -27.56282 -48.51602 38211 ft 451 kts 236°
2026-05-03 21:24 -27.59973 -48.57317 38207 ft 451 kts 236°
2026-05-03 21:25 -27.63044 -48.62076 38216 ft 451 kts 236°
2026-05-03 21:25 -27.66730 -48.67796 38216 ft 451 kts 236°
2026-05-03 21:26 -27.70417 -48.73526 38208 ft 451 kts 236°
2026-05-03 21:26 -27.74695 -48.80181 38211 ft 450 kts 236°
2026-05-03 21:27 -27.77776 -48.84983 38214 ft 450 kts 236°
2026-05-03 21:27 -27.81449 -48.90713 38210 ft 451 kts 236°
2026-05-03 21:28 -27.85125 -48.96456 38216 ft 451 kts 236°
2026-05-03 21:28 -27.88775 -49.02164 38211 ft 451 kts 236°
2026-05-03 21:29 -27.92444 -49.07911 38206 ft 451 kts 236°
2026-05-03 21:29 -27.96111 -49.13662 38212 ft 450 kts 236°
2026-05-03 21:30 -27.99776 -49.19416 38208 ft 451 kts 236°
2026-05-03 21:30 -28.03439 -49.25175 38207 ft 451 kts 236°
2026-05-03 21:31 -28.07110 -49.30953 38214 ft 452 kts 236°
2026-05-03 21:31 -28.10771 -49.36727 38213 ft 451 kts 236°
2026-05-03 21:32 -28.14433 -49.42509 38206 ft 452 kts 236°
2026-05-03 21:32 -28.18094 -49.48297 38212 ft 452 kts 236°
2026-05-03 21:33 -28.21752 -49.54087 38212 ft 452 kts 236°
2026-05-03 21:33 -28.25406 -49.59881 38207 ft 452 kts 236°
2026-05-03 21:34 -28.29063 -49.65684 38203 ft 452 kts 236°
2026-05-03 21:34 -28.32710 -49.71480 38212 ft 452 kts 236°
2026-05-03 21:35 -28.36333 -49.77250 38210 ft 452 kts 236°
2026-05-03 21:35 -28.39983 -49.83066 38212 ft 452 kts 236°
2026-05-03 21:36 -28.43624 -49.88877 38212 ft 452 kts 236°
2026-05-03 21:36 -28.47265 -49.94697 38210 ft 452 kts 236°
2026-05-03 21:37 -28.50903 -50.00518 38212 ft 451 kts 236°
2026-05-03 21:37 -28.54537 -50.06346 38219 ft 451 kts 236°
2026-05-03 21:38 -28.58169 -50.12175 38212 ft 451 kts 236°
2026-05-03 21:38 -28.61797 -50.18003 38210 ft 451 kts 236°
2026-05-03 21:39 -28.65424 -50.23837 38204 ft 451 kts 236°
2026-05-03 21:39 -28.67221 -50.26730 37679 ft 447 kts 236°
2026-05-03 21:39 -28.68996 -50.29593 36800 ft 451 kts 236°
2026-05-03 21:40 -28.70807 -50.32512 36052 ft 451 kts 236°
2026-05-03 21:40 -28.72802 -50.35281 35346 ft 453 kts 227°
2026-05-03 21:40 -28.75185 -50.37637 34620 ft 456 kts 220°
2026-05-03 21:40 -28.77720 -50.39811 33845 ft 457 kts 219°
2026-05-03 21:41 -28.80282 -50.41980 33064 ft 458 kts 219°
2026-05-03 21:41 -28.82845 -50.44152 32252 ft 459 kts 219°
2026-05-03 21:41 -28.85409 -50.46335 31439 ft 461 kts 219°
2026-05-03 21:41 -28.87974 -50.48524 30587 ft 462 kts 219°
2026-05-03 21:42 -28.90556 -50.50729 29729 ft 464 kts 219°
2026-05-03 21:42 -28.93141 -50.52938 28904 ft 464 kts 219°
2026-05-03 21:42 -28.95713 -50.55138 28292 ft 460 kts 219°
2026-05-03 21:42 -28.98259 -50.57319 27657 ft 455 kts 219°
2026-05-03 21:43 -29.00786 -50.59484 27037 ft 451 kts 219°
2026-05-03 21:43 -29.03285 -50.61626 26402 ft 447 kts 219°
2026-05-03 21:43 -29.05761 -50.63751 25798 ft 443 kts 219°
2026-05-03 21:43 -29.08215 -50.65858 25182 ft 439 kts 219°
2026-05-03 21:44 -29.10642 -50.67943 24566 ft 435 kts 218°
2026-05-03 21:44 -29.12906 -50.70136 23982 ft 429 kts 226°
2026-05-03 21:44 -29.14948 -50.72662 23379 ft 425 kts 230°
2026-05-03 21:44 -29.16863 -50.75155 22798 ft 421 kts 230°
2026-05-03 21:45 -29.18789 -50.77671 22202 ft 416 kts 230°
2026-05-03 21:45 -29.20690 -50.80152 21643 ft 413 kts 230°
2026-05-03 21:45 -29.22577 -50.82611 21054 ft 409 kts 230°
2026-05-03 21:45 -29.24448 -50.85051 20479 ft 406 kts 230°
2026-05-03 21:46 -29.26305 -50.87472 19897 ft 403 kts 230°
2026-05-03 21:46 -29.28148 -50.89877 19307 ft 400 kts 230°
2026-05-03 21:46 -29.29980 -50.92266 18727 ft 397 kts 230°
2026-05-03 21:46 -29.31790 -50.94629 18144 ft 394 kts 230°
2026-05-03 21:47 -29.33533 -50.96905 17571 ft 391 kts 230°
2026-05-03 21:47 -29.35325 -50.99243 16958 ft 389 kts 230°
2026-05-03 21:47 -29.37107 -51.01572 16462 ft 390 kts 230°
2026-05-03 21:47 -29.38918 -51.03940 16029 ft 398 kts 230°
2026-05-03 21:48 -29.40760 -51.06329 15361 ft 400 kts 230°
2026-05-03 21:48 -29.42602 -51.08713 14643 ft 397 kts 230°
2026-05-03 21:48 -29.44421 -51.11070 14020 ft 392 kts 230°
2026-05-03 21:48 -29.46215 -51.13398 13424 ft 387 kts 230°
2026-05-03 21:49 -29.47966 -51.15671 12864 ft 384 kts 230°
2026-05-03 21:49 -29.49751 -51.17991 12330 ft 380 kts 230°
2026-05-03 21:49 -29.51444 -51.20193 12061 ft 365 kts 230°
2026-05-03 21:49 -29.53091 -51.22336 11783 ft 351 kts 230°
2026-05-03 21:50 -29.54678 -51.24402 11506 ft 338 kts 230°
2026-05-03 21:50 -29.56205 -51.26393 11232 ft 326 kts 230°
2026-05-03 21:50 -29.57677 -51.28314 10970 ft 315 kts 230°
2026-05-03 21:50 -29.59099 -51.30169 10719 ft 304 kts 230°
2026-05-03 21:51 -29.60479 -51.31971 10354 ft 298 kts 230°
2026-05-03 21:51 -29.61870 -51.33728 9874 ft 296 kts 225°
2026-05-03 21:51 -29.63582 -51.35022 9362 ft 297 kts 202°
2026-05-03 21:51 -29.65530 -51.35799 8881 ft 296 kts 198°
2026-05-03 21:52 -29.67489 -51.36500 8426 ft 294 kts 198°
2026-05-03 21:52 -29.69436 -51.37202 7984 ft 292 kts 198°
2026-05-03 21:52 -29.71371 -51.37880 7509 ft 290 kts 194°
2026-05-03 21:52 -29.73345 -51.38327 7071 ft 288 kts 189°
2026-05-03 21:53 -29.75319 -51.38672 6624 ft 286 kts 188°
2026-05-03 21:53 -29.77282 -51.39011 6183 ft 284 kts 188°
2026-05-03 21:53 -29.79228 -51.39352 5783 ft 281 kts 188°
2026-05-03 21:53 -29.81144 -51.39688 5400 ft 277 kts 188°
2026-05-03 21:54 -29.83034 -51.40023 5074 ft 273 kts 188°
2026-05-03 21:54 -29.84879 -51.40351 4762 ft 272 kts 188°
2026-05-03 21:54 -29.86741 -51.40681 4449 ft 270 kts 188°
2026-05-03 21:54 -29.88592 -51.40990 4142 ft 268 kts 185°
2026-05-03 21:55 -29.90433 -51.40840 3945 ft 266 kts 165°
2026-05-03 21:55 -29.92198 -51.40218 3549 ft 265 kts 160°
2026-05-03 21:55 -29.93904 -51.39532 3239 ft 250 kts 160°
2026-05-03 21:55 -29.95477 -51.38905 3059 ft 229 kts 160°
2026-05-03 21:56 -29.96930 -51.38326 2936 ft 214 kts 159°
2026-05-03 21:56 -29.98159 -51.37503 2847 ft 197 kts 130°
2026-05-03 21:56 -29.98802 -51.36198 2764 ft 181 kts 109°
2026-05-03 21:56 -29.99108 -51.34861 2683 ft 166 kts 95°
2026-05-03 21:57 -29.99118 -51.33548 2601 ft 163 kts 90°
2026-05-03 21:57 -29.99154 -51.32245 2392 ft 162 kts 92°
2026-05-03 21:57 -29.99186 -51.30965 2163 ft 156 kts 91°
2026-05-03 21:57 -29.99209 -51.29742 1959 ft 149 kts 91°
2026-05-03 21:58 -29.99233 -51.28559 1770 ft 146 kts 91°
2026-05-03 21:58 -29.99258 -51.27392 1573 ft 145 kts 91°
2026-05-03 21:58 -29.99281 -51.26227 1378 ft 145 kts 91°
2026-05-03 21:58 -29.99304 -51.25064 1188 ft 145 kts 91°
2026-05-03 21:59 -29.99327 -51.23898 994 ft 145 kts 91°
2026-05-03 21:59 -29.99350 -51.22737 801 ft 145 kts 91°
2026-05-03 21:59 -29.99366 -51.21579 592 ft 144 kts 90°
2026-05-03 21:59 -29.99400 -51.20429 374 ft 143 kts 94°
2026-05-03 22:00 -29.99427 -51.19312 212 ft 143 kts 90°
2026-05-03 22:00 -29.99443 -51.18137 41 ft 141 kts 92°
2026-05-03 22:00 -29.99463 -51.17116 29 ft 103 kts 91°
2026-05-03 22:00 -29.99473 -51.16607 27 ft 45 kts 91°
2026-05-03 22:01 -29.99474 -51.16291 30 ft 16 kts 76°
2026-05-03 22:01 -29.99393 -51.16233 29 ft 16 kts
2026-05-03 22:01 -29.99295 -51.16280 28 ft 17 kts 289°
2026-05-03 22:01 -29.99285 -51.16428 28 ft 20 kts 271°
2026-05-03 22:02 -29.99283 -51.16600 27 ft 23 kts 271°
2026-05-03 22:02 -29.99280 -51.16796 27 ft 26 kts 271°
2026-05-03 22:02 -29.99275 -51.17014 27 ft 28 kts 271°
2026-05-03 22:02 -29.99271 -51.17250 29 ft 31 kts 271°
2026-05-03 22:03 -29.99265 -51.17504 31 ft 33 kts 271°
2026-05-03 22:03 -29.99261 -51.17647 31 ft 14 kts 278°
2026-05-03 22:03 -29.99186 -51.17714 27 ft 14 kts 318°
2026-05-03 22:03 -29.99159 -51.17829 30 ft 17 kts 279°
2026-05-03 22:04 -29.99119 -51.17955 30 ft 15 kts 320°
2026-05-03 22:04 -29.99067 -51.17939 29 ft 5 kts 75°
2026-05-03 22:04 -29.99066 -51.17887 29 ft 1 kts 90°